Tracking 31027 objects as of 19-Jul-2025
HD Live streaming from Space Station
objects crossing your sky now

DELTA 1 DEB

Track DELTA 1 DEB now!
10-day predictions


NORAD ID: 14904
Int'l Code: 1976-077ES
Perigee: 1,368.9 km
Apogee: 1,385.6 km
Inclination: 102.7 °
Period: 113.1 minutes
Semi major axis: 7748 km
RCS: 0.0109 m2 (small)
Launch date: July 29, 1976
Source: United States (US)
Launch site: AIR FORCE WESTERN TEST RANGE (AFWTR)

Note: This is SATELLITE DEBRIS
Your satellite tracking list
ATLAS 5 CENTAUR DEB
Track 1 satellite(s)




NASA's NSSDC Master Catalog

Two Line Element Set (TLE):
1 14904U 76077ES  25195.49514272  .00000303  00000-0  17255-2 0  9999
2 14904 102.7289  74.4670 0010755 352.5821 128.9637 12.72910026550311
Source of the keplerian elements: AFSPC